P/2021 N1 ( ZTF )

Japanese version
Home page
Updated on July 12, 2026

---------------------------------------------------------------------

* Profile

Discovery Date July 2, 2021
Magnitude 18.9 mag
Discoverer Zwicky Transient Facility (ZTF) survey at Palomar

* Pictures

* Orbital Elements

                    Epoch = 2021 May  26.0 TT
     T = 2021 June  6.55768 TT        Peri. =  21.19089
     e = 0.6769307                    Node  = 301.14414 2000.0
     q = 0.9619964 AU                 Incl. =  11.50455
       a =  2.9776785 AU   n = 0.19181712   P =   5.14 years

* Magnitudes Graph

        m1 = 17.5 + 5 log d + 10.0 log r

---------------------------------------------------------------------

The orbital elements are printed on CBET 5707.
The magnitudes graphs are made with Comet for Windows.

---------------------------------------------------------------------

Copyright(C) Seiichi Yoshida (comet@aerith.net). All rights reserved.